Retour au catalogue

YUBELEINY 2

ActifRadio amateurPO
NORAD 38735·PAYLOAD·🇷🇺 Russia

Lancé Jul 28, 2012 depuis Plesetsk Cosmodrome

Loading…

Prochains Passages (prochaines 24 heures)

TLE

FraisSource: Space-Track

Époque: Sep 14, 2026, 13:31 UTC

1 38735U 12041C   26257.56328528  .00000021  00000-0  80971-4 0  9997
2 38735  82.4802  18.9406 0016937 230.4605 129.4978 12.42652110640943

Suivez YUBELEINY 2 en temps réel avec AllMySat

Download on the App Store